AF5LA Weather Reports


time (UTC)temp
C
wind
direction
speed
KPH
gust
KPH
rain 1hr
cm
rain 24hr
cm
rain mn
cm
humidity
%
barometer
mb
20260506224514 24 340 4.8 16.1 0.00 0.00 0.00 70 1009.8
20260506223013 25 354 3.2 14.5 0.00 0.00 0.00 72 1009.4
20260506221513 25 360 0.0 4.8 0.00 0.00 0.00 71 1009.3
20260506220012 25 49 1.6 12.9 0.00 0.00 0.00 71 1009.2
20260506214510 26 349 1.6 8.0 0.00 0.00 0.00 71 1009.3
20260506213012 26 309 1.6 14.5 0.00 0.00 0.00 72 1009.2
20260506211509 26 331 0.0 11.3 0.00 0.00 0.00 74 1009.0
20260506210012 27 334 0.0 14.5 0.00 0.00 0.00 71 1009.0
20260506204508 30 23 0.0 4.8 0.00 0.00 0.00 68 1009.0
20260506203008 30 270 0.0 1.6 0.00 0.00 0.00 69 1009.1
20260506201508 29 271 0.0 3.2 0.00 0.00 0.00 68 1009.3
20260506200006 31 270 0.0 4.8 0.00 0.00 0.00 65 1009.3
20260506194505 31 233 0.0 1.6 0.00 0.00 0.00 64 1009.3
20260506193006 30 273 0.0 3.2 0.00 0.00 0.00 67 1009.3
20260506191501 30 224 0.0 1.6 0.00 0.00 0.00 68 1009.6
20260506190001 30 129 0.0 3.2 0.00 0.00 0.00 70 1009.7
20260506184558 30 191 0.0 0.0 0.00 0.00 0.00 70 1009.8
20260506183100 28 190 0.0 6.4 0.00 0.00 0.00 75 1010.0
20260506181552 28 227 0.0 1.6 0.00 0.00 0.00 76 1010.0
20260506180051 27 292 0.0 1.6 0.00 0.00 0.00 77 1010.4
20260506174545 27 293 0.0 1.6 0.00 0.00 0.00 81 1010.5
20260506173042 26 328 0.0 0.0 0.00 0.00 0.00 81 1010.7
20260506171551 26 328 0.0 1.6 0.00 0.00 0.00 84 1010.7
20260506170040 26 270 0.0 1.6 0.00 0.00 0.00 84 1010.8
20260506164539 26 270 0.0 1.6 0.00 0.00 0.00 84 1010.8
20260506163043 26 306 0.0 0.0 0.00 0.00 0.00 85 1010.8
20260506161536 25 307 0.0 0.0 0.00 0.00 0.00 87 1010.7
20260506160033 25 307 0.0 0.0 0.00 0.00 0.00 89 1010.7
20260506154529 24 306 0.0 3.2 0.00 0.00 0.00 90 1010.5
20260506153026 24 221 0.0 0.0 0.00 0.00 0.00 91 1010.2
20260506151532 24 221 0.0 0.0 0.00 0.00 0.00 91 1010.0
20260506150025 23 220 0.0 0.0 0.00 0.00 0.00 91 1009.8
20260506144523 23 221 0.0 0.0 0.00 0.00 0.00 90 1009.9
20260506143023 23 221 0.0 0.0 0.00 0.00 0.00 90 1009.8
20260506141548 23 221 0.0 0.0 0.00 0.00 0.00 90 1009.3
20260506140022 23 220 0.0 3.2 0.00 0.00 0.00 90 1009.1
20260506134514 23 246 0.0 0.0 0.00 0.00 0.00 90 1008.7
20260506133022 23 8 0.0 4.8 0.00 0.00 0.00 90 1008.6
20260506131516 23 347 0.0 3.2 0.00 0.00 0.00 90 1008.4
20260506130011 23 219 0.0 4.8 0.00 0.00 0.00 91 1008.4
20260506124508 23 186 0.0 0.0 0.00 0.00 0.00 91 1008.4
20260506123006 23 202 0.0 0.0 0.00 0.00 0.00 91 1008.5
20260506121506 23 219 0.0 0.0 0.00 0.00 0.00 90 1008.5
20260506120006 23 219 0.0 1.6 0.00 0.00 0.00 90 1008.3
20260506114505 23 224 0.0 1.6 0.00 0.00 0.00 90 1008.2
20260506113006 23 224 0.0 1.6 0.00 0.00 0.00 90 1008.2
20260506111503 23 147 0.0 0.0 0.00 0.00 0.00 90 1008.2
20260506110003 23 124 0.0 0.0 0.00 0.00 0.00 90 1008.3
20260506104505 23 118 0.0 0.0 0.00 0.00 0.00 90 1008.1
20260506103002 23 98 0.0 1.6 0.00 0.00 0.00 90 1008.1
20260506101501 23 110 0.0 6.4 0.00 0.00 0.00 90 1008.1
20260506094600 23 68 0.0 1.6 0.00 0.00 0.00 90 1007.9
20260506093102 23 41 0.0 4.8 0.00 0.00 0.00 89 1007.8
20260506091601 23 162 0.0 6.4 0.00 0.00 0.00 89 1007.7
20260506090056 23 111 0.0 4.8 0.00 0.00 0.00 89 1007.9
20260506084556 23 158 0.0 6.4 0.00 0.00 0.00 89 1007.9
20260506083058 23 94 0.0 3.2 0.00 0.00 0.00 89 1007.9
20260506081558 23 134 0.0 1.6 0.00 0.00 0.00 89 1007.8
20260506073048 23 177 0.0 3.2 0.00 0.00 0.00 89 1008.2
20260506071545 23 216 0.0 8.0 0.00 0.00 0.00 89 1008.3
20260506061541 23 173 0.0 6.4 0.00 0.00 0.00 89 1008.6
20260506044530 24 218 0.0 9.7 0.00 0.00 0.00 88 1008.5
20260506043035 24 206 0.0 6.4 0.00 0.00 0.00 88 1008.5
20260506041529 24 185 0.0 0.0 0.00 0.00 0.00 88 1008.5
20260506040036 25 218 0.0 6.4 0.00 0.00 0.00 88 1008.2
20260506034530 25 225 0.0 8.0 0.00 0.00 0.00 88 1008.1
20260506033033 25 229 0.0 4.8 0.00 0.00 0.00 87 1007.8
20260506031528 25 176 0.0 4.8 0.00 0.00 0.00 87 1007.7
20260506030028 25 154 0.0 0.0 0.00 0.00 0.00 85 1007.4
20260506024529 25 154 0.0 8.0 0.00 0.00 0.00 84 1007.1
20260506023029 26 164 1.6 9.7 0.00 0.00 0.00 83 1006.8
20260506021532 26 153 0.0 9.7 0.00 0.00 0.00 81 1006.6
20260506020026 27 340 0.0 8.0 0.00 0.00 0.00 80 1006.7
20260506014524 27 314 0.0 4.8 0.00 0.00 0.00 78 1006.4
20260506013025 27 297 0.0 0.0 0.00 0.00 0.00 77 1006.2
20260506011522 27 295 0.0 0.0 0.00 0.00 0.00 76 1006.0
20260506010041 27 83 0.0 4.8 0.00 0.00 0.00 75 1005.9
20260506004525 28 232 0.0 0.0 0.00 0.00 0.00 75 1005.8
20260506003022 28 232 0.0 3.2 0.00 0.00 0.00 74 1005.7
20260506001521 28 248 0.0 1.6 0.00 0.00 0.00 73 1005.8
20260506000021 28 203 0.0 1.6 0.00 0.00 0.00 71 1005.6
20260505234533 29 166 0.0 3.2 0.00 0.00 0.00 71 1005.4
20260505233025 29 280 0.0 1.6 0.00 0.00 0.00 70 1005.4
20260505231519 30 219 0.0 1.6 0.00 0.00 0.00 68 1005.4
20260505230018 30 161 0.0 9.7 0.00 0.00 0.00 66 1005.2